Location: Newark
(55.4390°N, 25.0170°E)
Time: 10:34:19
(UTC+00:00)

N. Korean satellite - Visible Passes

Search period start: 01 October 2022 00:00
Search period end: 11 October 2022 00:00
Orbit: 426 x 468 km, 97.3° (Epoch: 30 September)

Date Brightness Start Highest point End Pass type
(mag) Time Alt. Az. Time Alt. Az. Time Alt. Az.
01 Oct 8.4 03:16:09 10° NNE 03:19:09 32° E 03:22:07 10° SSE visible
02 Oct 9.7 02:41:12 10° NE 02:43:03 14° E 02:44:53 10° ESE visible
03 Oct 7.2 03:37:00 10° NNE 03:40:14 54° E 03:43:27 10° S visible
04 Oct 9.1 03:01:30 10° NE 03:04:09 22° E 03:06:48 10° SSE visible
06 Oct 8.1 03:21:54 10° NNE 03:25:00 36° E 03:28:03 10° SSE visible
07 Oct 9.6 02:46:34 10° NE 02:48:41 16° E 02:50:48 10° SE visible
08 Oct 6.9 03:42:18 10° NNE 03:45:34 63° ESE 03:48:49 10° S visible
09 Oct 8.9 03:06:29 10° NE 03:09:16 25° E 03:12:02 10° SSE visible
10 Oct 9.9 02:31:40 10° ENE 02:32:43 11° E 02:33:47 10° ESE visible
